Content
SEND FEEDBACK

Daily
Averages
Monthly
Summary
Norway

ROROS, NORWAY


Home > Europe > Norway
Elevation: 627 meters     Latitude: 62 34N     Longitude: 011 23E

WEATHER
 
SELECT A DAY
Number of Records: 153,036;   Date Range: 7/1/96 - 9/22/14
 
SHARE

PRINT THIS DATA

[ ← Previous Day ]
WEATHER ALMANAC - 13 FEBRUARY, 2013
[ Next Day → ]
[ °F ]   °C
Weather ElementAverageHighLow
Temperature-10.3 °C-6 °C (1:50 pm)-20 °C (8:20 pm)
Dewpoint-13.2 °C-11 °C (9:20 am)-22 °C (7:50 pm)
Humidity80.8 %92 % (9:20 pm)68 % (1:50 pm)
Barometer1020 hPa1021 hPa (4:50 pm)1019 hPa (4:20 am)
Wind Speed10.5 km/h16.7 km/h (10:50 am)
Weather ElementAverage
Visibility9.2 km
Wind DirectionESE (109.5 °)

Weather ElementTotal
Precipitation---
Heating Degree Days31.3 (Base 18.3)
Averaged from 43 records on 13 February, 2013
WEATHER CONDITIONS BREAKOUT
WIND DIRECTION BREAKOUT
WEATHER BY HOUR - 13 FEBRUARY, 2013
[ °F ]   °C
Local TimeTemperatureDewpointHumidityBarometerVisibilityWind DirectionWind SpeedGust SpeedPrecipitationEventsConditions
12:50 AM-10 °C-12 °C86 %1020 hPa10 kmESE (120°)5.6 km/hSnowSnow Grains
1:20 AM-10 °C-12 °C86 %1020 hPa6.9 kmESE (120°)11.1 km/hSnowLight Snow
1:50 AM-10 °C-12 °C86 %1020 hPa4.5 kmESE (120°)11.1 km/hSnowLight Snow
2:20 AM-10 °C-12 °C86 %1020 hPa5 kmESE (120°)7.4 km/hSnowLight Snow
2:50 AM-10 °C-12 °C86 %1020 hPa5 kmESE (120°)5.6 km/hSnowLight Snow
3:20 AM-10 °C-12 °C86 %1020 hPa6.9 kmESE (120°)9.3 km/hSnowLight Snow
3:50 AM-10 °C-12 °C86 %1020 hPa10 kmESE (120°)9.3 km/hSnowLight Snow
4:20 AM-10 °C-12 °C86 %1019 hPa10 kmESE (110°)13 km/hOvercast
4:50 AM-10 °C-12 °C86 %1020 hPa10 kmESE (120°)14.8 km/hSnowSnow Grains
5:20 AM-10 °C-12 °C86 %1020 hPa10 kmEast (100°)9.3 km/hSnowLight Snow
5:50 AM-10 °C-12 °C86 %1020 hPa10 kmESE (110°)11.1 km/hSnowLight Snow
6:20 AM-10 °C-12 °C86 %1019 hPa8 kmESE (120°)13 km/hSnowLight Snow
6:50 AM-10 °C-12 °C86 %1019 hPaSE (130°)11.1 km/hSnowLight Snow
7:20 AM-10 °C-12 °C86 %1019 hPa8 kmESE (120°)9.3 km/hSnowLight Snow
8:20 AM-10 °C-12 °C86 %1019 hPa10 kmESE (120°)9.3 km/hSnowLight Snow Showers
8:50 AM-9 °C-12 °C79 %1020 hPa10 kmESE (110°)11.1 km/hSnowLight Snow Showers
9:20 AM-9 °C-11 °C86 %1020 hPa10 kmESE (120°)11.1 km/hMostly Cloudy
9:50 AM-9 °C-11 °C86 %1020 hPa10 kmESE (120°)11.1 km/hSnowLight Snow Showers
10:20 AM-9 °C-12 °C79 %1020 hPa10 kmSE (130°)13 km/hSnowLight Snow Showers
10:50 AM-9 °C-12 °C79 %1020 hPa10 kmESE (120°)16.7 km/hPartly Cloudy
11:20 AM-9 °C-12 °C79 %1020 hPa10 kmESE (120°)14.8 km/hPartly Cloudy
11:50 AM-7 °C-11 °C74 %1020 hPa10 kmESE (120°)14.8 km/hPartly Cloudy
12:20 PM-7 °C-11 °C74 %1020 hPa10 kmESE (120°)16.7 km/hPartly Cloudy
12:50 PM-7 °C-11 °C74 %1020 hPa10 kmESE (120°)16.7 km/hPartly Cloudy
1:20 PM-7 °C-11 °C74 %1020 hPa10 kmESE (120°)13 km/hPartly Cloudy
1:50 PM-6 °C-11 °C68 %1020 hPa10 kmSE (130°)11.1 km/hPartly Cloudy
2:20 PM-6 °C-11 °C68 %1020 hPa10 kmESE (120°)13 km/hPartly Cloudy
3:20 PM-7 °C-12 °C68 %1020 hPa10 kmESE (120°)16.7 km/hPartly Cloudy
3:50 PM-8 °C-12 °C73 %1020 hPa10 kmESE (120°)14.8 km/hPartly Cloudy
4:20 PM-8 °C-12 °C73 %1020 hPaESE (110°)11.1 km/hClear
4:50 PM-10 °C-14 °C73 %1021 hPaEast (100°)7.4 km/hClear
5:20 PM-11 °C-14 °C79 %1021 hPaSE (130°)9.3 km/hClear
5:50 PM-13 °C-15 °C85 %1020 hPaVariable1.9 km/hClear
6:20 PM-14 °C-16 °C85 %1021 hPaVariable3.7 km/hClear
7:20 PM-17 °C-19 °C85 %1021 hPaNNW (340°)3.7 km/hClear
7:50 PM-19 °C-22 °C78 %1021 hPaVariable3.7 km/hClear
8:20 PM-20 °C-22 °C85 %1021 hPaCalmClear
8:50 PM-18 °C-20 °C85 %1021 hPaSSE (150°)14.8 km/hClear
9:20 PM-12 °C-13 °C92 %1021 hPaVariable11.1 km/hClear
10:20 PM-13 °C-17 °C73 %1021 hPa10 kmVariable3.7 km/hMostly Cloudy
10:50 PM-10 °C-14 °C73 %1021 hPa10 kmSSE (150°)7.4 km/hOvercast
11:20 PM-11 °C-14 °C79 %1021 hPa10 kmSE (140°)11.1 km/hIce Crystals
11:50 PM-10 °C-13 °C79 %1021 hPa10 kmSE (130°)16.7 km/h
Hourly data recorded from ENRO, located 0 kilometers away from Roros, Norway







STORIES FROM OUR PARTNERS